Showing default

QIANFAN-54, 62255

Orbit data source: Space-Track

QIANFAN-54, 62255 is a Chinese payload satellite in LEO that was launched on Thu, 05 Dec 2024 UTC via a CHANG ZHENG 6A launch vehicle from the Taiyaun Space Center, China (TSC). Payload-class satellites include a variety of spacecraft equipped with specific instruments for various scientific and technological missions. These include communications satellites like Starlink; space stations such as the ISS; scientific satellites like the Hubble; Earth observation satellites from companies like Planet Labs, Umbra, and HawkEye 360; GPS; miniature CubeSats for education and research; and military/defense satellites.

Loading next visibility...
Identifier
62255, 2024-232U
Orbit
LEO
Country
Flag of CNCN / PRC
Related business
Manufacturer
SECM
Mission
Operational Commercial Communications
Bus & Motor
QIANFAN, Unknown motor
Mass
267 kg wet, ~267 kg dry
Launch date (UTC)
2024-12-05 (1 year ago)
Launch vehicle
CHANG ZHENG 6A
Launch site
Taiyaun Space Center, China (TSC)
Object type
Payload
Rocket body
Debris
Shape & HBR
Box + 1 Pan, 5.0 m
Radar Cross Section
13.200 m², Large (>1 m²)

Expand to show TLE details & history
Last TLE update: 7 hours ago

TLE from 7 hours ago
0 QIANFAN-54
1 62255U 24232U   25352.89708853  .00000089  00000-0  11900-3 0  9999
2 62255  89.0015  40.2735 0002170 161.8091 198.3138 13.50980382100241
Epoch: 2025-12-18T21:31Z
TLE epoch observation values (Epoch: 2025-12-18T21:31:48.448Z)
Latitude
-0.00007°
Longitude
-10.42438°
Altitude
1,073.141 km
Speed
7.315 km/s
True Right ascension
02h 41m 05s
True Declination
0° 00' 00"
Sunlit
Object was in full shadow at epoch
Visualization orbit readout
Latitude
Unknown
Longitude
Unknown
Altitude
Unknown
Speed
Unknown
Apparent Right ascension
Unknown
Apparent Declination
Unknown
Sunlit
N/A
Visualization observer readout
Local Sidereal Time
03:42:44
Azimuth
Unknown
Elevation
Unknown
Doppler factor
Unknown
Orbital elements
Apogee altitude
1,067.32 km
Perigee altitude
1,064.089 km
Semi-major axis
7,443.842 km
Eccentricity
0.00022
Inclination
89.0015°
RAAN
40.2735°
Arg. of periapsis
161.8091°
True anomaly
198.30599°
Mean anomaly
198.3138°
Eccentric anomaly
198.30989°
Mean motion
3.37946 °/min
Orbital period
106.53 mins
BSTAR
0.000119
Loading maneuver chart data...
Computing Atmospheric mass density...
Loading historical data...
Loading historical data...
Loading historical data...
Loading historical data...
Loading historical data...
Loading historical data...
Loading historical data...

Documentation

Showing up to 5 results
|